Preview of NWS' New Version of Forecast
This preview is not operational and should not be used for support decisions.

Regional Weather Roundup (RWR)

Issued by National Weather Service (NWS)

                            
000
ASUS44 KMEG 212010
RWRTN 
TENNESSEE HOURLY STATE WEATHER ROUNDUP
NATIONAL WEATHER SERVICE MEMPHIS TN
300 PM CDT SUN JUL 21 2019

TNZ002-004-019-021-049-052-054-088>092-212100-
WEST TENNESSEE
  
CITY           SKY/WX    TMP DP  RH WIND       PRES   REMARKS
MEMPHIS INTL   PTSUNNY   86  76  71 SE8       29.97S HX  96           
NWS MEMPHIS      N/A     81 N/A N/A MISG        N/A                   
JACKSON        PTSUNNY   85  77  77 S8        29.98S HX  95           
DYERSBURG      FAIR      90  78  68 VRB5      29.96F HX 104           
SOMERVILLE     MOSUNNY   75  73  94 S3        29.97F                  
COVINGTON      MOSUNNY   81  77  89 S7        29.96S                  
UNION CITY     MOSUNNY   90  77  66 S9        29.93F HX 102           
BOLIVAR        SUNNY     88  77  70 S6        29.98S HX 100           
PARIS          CLOUDY    88  77  70 S6        29.96S HX 100           
HUNTINGDON     PTSUNNY   86  79  79 S8        29.96F HX  99           
LEXINGTON      SUNNY     88  75  66 S8        29.97F HX  97           
SELMER         SUNNY     84  77  79 VRB3      29.99S HX  94           
SAVANNAH       PTSUNNY   86  77  74 SE7       29.98F HX  97           
$$

TNZ008-025-027-028-033-062-065-066-212100-
NORTH MIDDLE TENNESSEE
  
CITY           SKY/WX    TMP DP  RH WIND       PRES   REMARKS
NASHVILLE      PTSUNNY   86  75  69 SW6       29.99F HX  95           
PORTLAND       MOSUNNY   84  75  74 S13       29.98F HX  92           
CLARKSVILLE    FAIR      88  76  67 S10       29.96F HX  99           
LEBANON        MOCLDY    84  75  74 SW6       29.97F HX  92           
SMYRNA         PTSUNNY   85  75  72 SW5       30.00F HX  93           
MURFREESBORO   PTCLDY    86  75  70 SW6       29.98F HX  95           
COOKEVILLE     SUNNY     82  77  83 SW5       30.01F HX  91           
LIVINGSTON     MOCLDY    79  72  78 N8        30.02S                  
GALLATIN       MOCLDY    82  75  78 VRB3      30.02F                  
CROSSVILLE     FAIR      78  68  71 VRB7      30.08S                  
ROCKWOOD       CLEAR     81  72  74 SW9       30.05F                  
$$

TNZ061-075-076-078-094-096-097-212100-
SOUTH MIDDLE TENNESSEE
  
CITY           SKY/WX    TMP DP  RH WIND       PRES   REMARKS
LAWRENCEBURG   MOCLDY    84  75  74 VRB6G14   30.01F HX  92           
LEWISBURG      MOCLDY    84  75  74 SW5       29.99F HX  92           
FAYETTEVILLE   MOSUNNY   86  73  66 VRB3      30.01F HX  93           
TULLAHOMA      SUNNY     86  73  66 S6        30.02F HX  93           
WINCHESTER     MOSUNNY   84  73  70 CALM      30.01F HX  91           
MCMINNVILLE    PTSUNNY   86  73  66 VRB6      30.01F HX  93           
COLUMBIA       MOSUNNY   88  77  70 SW6G12    29.98F HX 100           
SHELBYVILLE    MOSUNNY   86  75  70 SW6       30.00F HX  95           
$$

TNZ017-018-042-046-047-212100-
NORTHEAST TENNESSEE
  
CITY           SKY/WX    TMP DP  RH WIND       PRES   REMARKS
TRI CITIES     FAIR      89  69  51 VRB3      30.02F HX  93           
ELIZABETHTON   FAIR      88  72  58 W10       30.02F HX  94           
GREENEVILLE    PTCLDY    84  73  70 NW8       30.03F HX  91           
$$

TNZ012-013-036-069-073-074-212100-
CENTRAL EAST TENNESSEE
  
CITY           SKY/WX    TMP DP  RH WIND       PRES   REMARKS
KNOXVILLE      FAIR      90  69  50 SW13      30.00F HX  94           
OAK RIDGE      FAIR      89  71  55 VRB3      30.02F HX  95           
DOWNTOWN KNOXV MOSUNNY   90  73  58 W10G16    30.00F HX  98           
GATLINBURG     MOSUNNY   90  72  55 W8G18     30.00S HX  96           
MORRISTOWN     MOSUNNY   88  72  58 NW8G15    30.01F HX  94           
JACKSBORO      SUNNY     79  73  83 NE3       30.05S                  
$$

TNZ083-085-099-212100-
SOUTHEAST TENNESSEE
  
CITY           SKY/WX    TMP DP  RH WIND       PRES   REMARKS
CHATTANOOGA    PTSUNNY   88  72  58 SE3       30.01F HX  94           
DAYTON         CLEAR     90  73  58 SW8G16    29.99F HX  98           
$$

SKY/WX REPORTED AS FAIR MEANS FEW OR NO CLOUDS BELOW
12 THOUSAND FEET.